Location: Chin
(49.7667°N, 112.4500°W)
Time: 10:58:58
(UTC+00:00)

Envisat - Pass Details

Date: 29 November 2021
Orbit: 764 x 766 km, 98.2° (Epoch: 25 January)

Event Time Altitude Azimuth Distance (km) Brightness Sun altitude
Rises 13:36:48 0° 7° (N) 3,247 6.1 -13.4°
Reaches altitude 10° 13:39:16 10° 359° (N) 2,316 5.3 -13.0°
Maximum altitude 13:43:51 35° 295° (WNW) 1,230 3.5 -12.3°
Drops below altitude 10° 13:48:25 10° 231° (SW) 2,301 5.2 -11.6°
Sets 13:50:52 0° 223° (SW) 3,223 6.0 -11.3°
